Tracking 29059 objects as of 19-Jun-2024
HD Live streaming from Space Station
objects crossing your sky now

POLAR SCOUT YUKON

Track POLAR SCOUT YUKON now!
10-day predictions


NORAD ID: 43808
Int'l Code: 2018-099BC
Perigee: 544.0 km
Apogee: 555.8 km
Inclination: 97.6 °
Period: 95.5 minutes
Semi major axis: 6920 km
RCS: Unknown
Launch date: December 3, 2018
Source: United States (US)
Launch site: AIR FORCE WESTERN TEST RANGE (AFWTR)
Your satellite tracking list
Your tracking list is empty




NASA's NSSDC Master Catalog

Two Line Element Set (TLE):
1 43808U 18099BC  24170.89063748  .00007751  00000-0  50927-3 0  9995
2 43808  97.5607 232.8788 0008574   7.5626 352.5730 15.07853520302698
Source of the keplerian elements: AFSPC